Hourly Data Report for November 14, 2016

All times are specified in Local Standard Time (LST). Add 1 hour to adjust for Daylight Saving Time where and when it is observed.

KITCHENER/WATERLOO
ONTARIO

43°27'39.000" N
80°22'43.000" W
321.60 m
6144239
71368
YKF

Download Data

Hourly Data (November 2016)
Hourly Data Report for November 14, 2016
Temp Definition
°C
Dew Point Temp Definition
°C
Rel Hum Definition
%
Wind Dir Definition
10's deg

Wind Spd Definition
km/h
Visibility Definition
km
Stn Press Definition
kPa
Hmdx Definition


Wind Chill Definition


Weather Definition


TIME
00:00 Legend Double Dagger 3.1 -2.5 67 23 17 16.1 97.62     LegendNANA
01:00 Legend Double Dagger 1.5 -2.9 73 25 8 16.1 97.65     LegendNANA
02:00 Legend Double Dagger 2.6 -2.9 67 23 15 16.1 97.62     LegendNANA
03:00 Legend Double Dagger 3.8 -2.7 63 24 15 16.1 97.59     LegendNANA
04:00 Legend Double Dagger 3.1 -2.5 67 23 13 16.1 97.58     LegendNANA
05:00 Legend Double Dagger 2.5 -2.3 71 23 13 16.1 97.60     LegendNANA
06:00 Legend Double Dagger 2.7 -2.1 71 22 9 16.1 97.55     LegendNANA
07:00 Legend Double Dagger 2.6 -2.0 72 23 13 16.1 97.53     LegendNANA
08:00 Legend Double Dagger 2.6 -1.6 74 22 11 16.1 97.60     LegendNANA
09:00 Legend Double Dagger 5.1 -0.4 68 25 13 16.1 97.63     LegendNANA
10:00 Legend Double Dagger 7.4 0.4 61 22 17 16.1 97.60     LegendNANA
11:00 Legend Double Dagger 9.1 1.3 58 23 15 16.1 97.61     LegendNANA
12:00 Legend Double Dagger 10.5 1.9 55 21 13 16.1 97.55     LegendNANA
13:00 Legend Double Dagger 11.8 2.0 51 20 17 16.1 97.51     LegendNANA
14:00 Legend Double Dagger 12.9 1.9 47 23 22 16.1 97.46     LegendNANA
15:00 Legend Double Dagger 13.2 1.7 45 22 15 16.1 97.46     LegendNANA
16:00 Legend Double Dagger 12.2 1.3 47 23 17 16.1 97.48     LegendNANA
17:00 Legend Double Dagger 9.3 3.2 65 20 13 16.1 97.51     LegendNANA
18:00 Legend Double Dagger 7.8 2.9 71 19 15 16.1 97.55     LegendNANA
19:00 Legend Double Dagger 6.7 3.6 81 18 9 16.1 97.57     LegendNANA
20:00 Legend Double Dagger 6.2 3.7 84 21 8 16.1 97.56     LegendNANA
21:00 Legend Double Dagger 5.4 3.4 87 LegendMM 4 16.1 97.53     LegendNANA
22:00 Legend Double Dagger 5.5 2.3 80 22 4 16.1 97.53     LegendNANA
23:00 Legend Double Dagger 1.8 0.4 90 LegendMM 4 16.1 97.52     LegendNANA

Notes on Data Quality.

Legend

  • E = Estimated
  • M = Missing
  • NA = Not Available
  • ‡ = Partner data that is not subject to review by the National Climate Archives
Date modified: